Location: Unspecified
(0.0000°N, 0.0000°E)
Time: 17:41:32
(UTC+00:00)

Cosmos 1602 Rocket - Pass Details

Date: 21 February 2024
Orbit: 600 x 631 km, 82.5° (Epoch: 11 April)

Event Time Altitude Azimuth Distance (km) Brightness Sun altitude
Rises 05:30:45 0° 23° (NNE) 2,864 7.1 -10.5°
Reaches altitude 10° 05:33:32 10° 41° (NE) 1,957 6.6 -9.9°
Maximum altitude 05:36:34 19° 86° (E) 1,471 6.7 -9.1°
Drops below altitude 10° 05:39:35 10° 131° (SE) 1,952 7.2 -8.4°
Sets 05:42:20 0° 149° (SSE) 2,853 7.6 -7.7°
